Probability
0 0 0 0 0 0 0 0 0 0 0 0 0 0 0 0 0 0 0 0 0 0 0 0 0 0 0 0 0 0 0 0 0 0 0 0 0 0
0 0 0 0 0 0 0 0 0 0 0 0 0 0 0 0 0 0 0 0 0 0 0 0 0 0 0 0 0 0 0 0 0 0 0 0 0 0
0 0 0 0 0 0 0 0 0 0 0 0 0 0 0 0 0 0 0 0 0 0 0 0 0 0 0 0 0 0 0 0 0 0 0 0 0 0
0 0 0 0 0 0 0 0 0 0 0 0 0 0 0 0 0 0 0 0 0 0 0 0 0 0 0 0 0 0 0 0 0 0 0 0 0 0
0 0 0 0 0 0 0 0 0 0 0 0 0 0 0 0 0 0 0 0 0 0 0 0 0 0 0 0 0 0 0 0 0 0 0 0 0 0
0 0 0 0 0 0 0 0 0 0 0 0 0 0 0 0 0 0 0 0 0 0 0 0 0 0 0 0 0 0 0 0 0 0 0 0 0 0
0 0 0 0 0 0 0 0 0 0 0 0 0 0 0 0 0 0 0 0 0 0 0 0 0 0 0 0 0 0 0 0 0 0 0 0 0 0
0 0 0 0 0 0 0 0 0 0 0 0 0 0 0 0 0 0 0 0 0 0 0 0 0 0 0 0 0 0 0 0 0 0 0 0 0 0
0 0 0 0 0 0 0 0 0 0 0 0 0 0 0 0 0 0 0 0 0 0 0 0 0 0 0 0 0 0 0 0 0 0 0 0 0 0
0 0 0 0 0 0 0 0 0 0 0 0 0 0 0 0 0 0 0 0 0 0 0 0 0 0 0 0 0 0 0 0 0 0 0 0 0 0
0 0 0 0 0 0 0 0 0 0 0 0 0 0 0 0 0 0 0 0 0 0 0 0 0 0 0 0 0 0 0 0 0 0 0 0 0 0
0 0 0 0 0 0 0 0 0 0 0 0 0 0 0 0 0 0 0 0 0 0 0 0 0 0 0 0 0 0 0 0 0 0 0 0 0 0
0 0 0 0 0 0 0 0 0 0 0 0 0 0 0 0 0 0 0 0 0 0 0 0 0 0 0 0 0 0 0 0 0 0 0 0 0 0
0 0 0 0 0 0 0 0 0 0 0 0 0 0 0 0 0 0 0 0 0 0 0 0 0 0 0 0 0 0 0 0 0 0 0 0 0 0
0 0 0 0 0 0 0 0 0 0 0 0 0 0 0 0 0 0 0 0 0 0 0 0 0 0 0 0 0 0 0 0 0 0 0 0 0 0
0 0 0 0 0 0 0 0 0 0 0 0 0 0 0 0 0 0 0 0 0 0 0 0 0 0 0 0 0 0 0 0 0 0 0 0 0 0
0 0 0 0 0 0 0 0 0 0 0 0 0 0 0 0 0 0 0 0 0 0 0 0 0 0 0 0 0 0 0 0 0 0 0 0 0 0
0 0 0 0 0 0 0 0 0 0 0 0 0 0 0 0 0 0 0 0 0 0 0 0 0 0 0 0 0 0 0 0 0 0 0 0 0 0
0 0 0 0 0 0 0 0 0 0 0 0 0 0 0 0 0 0 0 0 0 0 0 0 0 0 0 0 0 0 0 0 0 0 0 0 0 0
0 0 0 0 0 0 0 0 0 0 0 0 0 0 0 0 0 0 0 0 0 0 0 0 0 0 0 0 0 0 0 0 0 0 0 0 0 0
0 0 0 0 0 0 0 0 0 0 0 0 0 0 0 0 0 0 0 0 0 0 0 0 0 0 0 0 0 0 0 0 0 0 0 0 0 0
0 0 0 0 0 0 0 0 0 0 0 0 0 0 0 0 0 0 0 0 0 0 0 0 0 0 0 0 0 0 0 0 0 0 0 0 0 0
0 0 0 0 0 0 0 0 0 0 0 0 0 0 0 0 0 0 0 0 0 0 0 0 0 0 0 0 0 0 0 0 0 0 0 0 0 0
Wind_Speed
4 4 3 4 4 4 3 3 4 8 7 4 4 4 5 6 11 7 7 13 19 18 18 17 18 19 20 20 20 20 19 18 17 16 15 15 15 15
3 3 3 3 3 3 2 2 3 4 7 3 4 5 7 10 14 9 7 20 21 21 21 20 19 20 21 21 21 20 20 18 16 15 15 14 15 15
4 4 5 4 3 3 3 3 3 3 8 7 4 5 6 8 10 9 9 9 10 21 22 21 20 19 20 19 19 18 17 16 16 15 14 14 15 16
6 5 6 5 5 5 4 4 5 5 6 11 7 5 7 8 9 10 10 10 8 15 18 17 17 16 15 14 14 13 13 13 13 14 15 14 15 15
5 6 7 6 7 6 6 6 5 7 6 9 11 6 6 7 7 9 10 7 9 10 10 10 10 10 9 8 8 9 11 11 12 13 14 14 14 14
6 6 7 7 7 7 6 7 7 7 8 9 10 8 7 7 6 6 7 5 6 8 9 10 10 10 10 9 10 11 12 13 13 13 13 12 12 11
8 8 8 12 13 9 8 7 7 8 8 9 10 9 8 6 6 6 8 7 7 6 6 6 5 4 6 9 12 13 13 14 14 14 13 12 12 10
9 9 9 10 12 16 17 18 17 13 12 11 10 10 10 8 7 7 7 8 7 4 4 6 4 5 5 5 12 15 14 14 14 14 14 13 13 12
8 8 9 10 12 8 13 18 18 21 20 14 12 11 11 9 9 10 9 10 10 6 4 7 5 7 7 8 14 14 14 13 13 13 14 14 14 13
8 8 9 9 9 10 12 13 13 13 14 11 10 11 11 10 10 10 11 10 9 8 7 6 5 6 6 5 10 13 13 13 13 13 13 14 14 14
9 9 10 9 12 15 13 12 13 12 13 12 12 12 13 12 9 6 6 6 6 4 3 3 2 2 2 3 6 11 13 13 13 13 13 14 15 14
8 9 12 11 14 16 11 10 11 10 10 9 8 7 6 5 6 4 4 5 4 3 2 1 1 1 2 2 2 3 5 9 12 13 14 15 15 10
8 7 7 13 16 16 13 9 10 11 7 6 5 4 3 3 3 3 4 3 3 2 2 2 2 2 2 3 2 3 4 4 5 8 13 17 18 15
8 7 8 15 17 16 11 11 13 9 5 4 4 4 3 3 3 4 4 4 3 4 4 3 2 2 2 2 3 3 3 4 5 7 8 12 17 21
7 13 15 15 14 10 11 13 9 5 4 4 4 3 3 3 4 4 4 4 3 4 5 5 3 2 2 2 3 3 3 3 5 6 6 7 8 10
8 10 13 12 10 9 9 7 5 5 4 4 4 3 3 3 4 4 3 4 3 3 4 5 6 6 3 3 3 3 3 4 4 3 1 2 5 7
8 5 4 6 6 6 6 6 5 5 5 5 4 3 3 3 4 4 4 4 4 4 5 4 2 1 5 7 4 5 6 5 6 6 4 6 6 5
6 5 6 6 6 6 6 6 5 5 5 4 4 3 3 4 4 4 4 4 5 5 6 6 5 3 2 6 14 8 7 7 8 10 8 7 7 6
5 5 5 6 6 7 6 6 5 6 5 4 3 3 3 3 4 5 5 5 5 6 7 7 7 6 6 7 10 17 9 8 8 11 11 10 9 9
5 5 6 6 6 6 6 6 6 6 5 4 3 3 3 3 4 4 5 7 6 7 7 8 8 7 6 5 5 10 19 10 9 10 10 10 11 15
6 6 6 6 6 6 7 6 6 6 6 5 4 3 3 3 3 4 4 7 7 7 8 8 8 10 5 4 6 8 12 21 19 9 6 8 11 12
5 6 6 6 6 6 7 7 7 6 7 5 5 4 3 2 2 3 3 4 5 6 7 6 7 8 7 8 9 9 10 12 20 29 28 18 8 8
5 6 6 6 6 6 7 7 8 6 6 6 6 5 3 2 1 2 2 3 3 5 6 6 7 7 8 8 9 10 14 14 12 15 17 23 25 25
Wind_Direction
279 279 275 277 279 272 265 253 272 296 294 270 277 276 279 277 278 278 273 289 296 292 284 275 271 270 267 265 262 260 256 257 262 268 275 281 286 291
333 337 319 299 300 294 283 270 247 269 289 269 266 274 287 295 295 294 286 294 292 288 283 278 271 266 263 259 257 254 250 248 252 257 264 274 280 283
347 339 318 304 292 285 276 266 260 257 284 289 257 269 276 281 289 286 283 277 277 281 280 277 273 268 263 259 255 250 243 240 243 248 257 269 276 276
326 320 308 305 292 277 269 264 261 254 264 289 291 278 273 275 277 280 286 285 278 281 281 280 278 273 267 261 254 244 236 233 236 244 252 262 270 272
305 301 296 296 291 284 277 272 269 275 264 278 287 278 271 273 279 282 284 282 285 287 291 299 304 302 288 271 261 248 237 229 227 233 241 250 259 269
304 298 296 293 288 288 289 282 282 282 278 277 282 282 274 268 265 274 286 277 282 292 292 289 288 289 284 273 262 253 242 234 229 226 227 232 243 257
315 308 303 306 311 311 310 300 296 290 287 284 285 284 279 273 267 267 277 280 274 266 270 271 268 265 269 268 265 259 249 238 230 223 220 222 227 234
311 309 306 305 311 316 314 310 305 299 295 287 285 283 282 273 270 269 271 275 278 249 237 259 242 252 253 248 255 255 249 240 229 222 218 218 219 221
301 303 308 310 314 305 308 308 302 296 291 287 285 283 282 277 274 274 268 266 266 254 239 259 248 254 253 255 251 243 242 238 230 224 219 216 214 214
300 298 299 302 307 311 310 303 297 294 289 286 276 275 275 275 271 273 275 272 266 258 236 251 244 245 252 244 243 239 237 234 231 228 221 214 211 210
306 306 307 304 307 314 312 304 301 299 300 291 281 281 283 286 289 285 284 283 280 268 226 234 242 253 260 253 247 240 236 230 228 227 222 216 212 211
310 308 309 308 312 316 315 307 305 308 311 314 311 308 304 309 322 316 313 306 300 296 347 312 272 268 283 270 253 238 233 233 232 231 228 223 216 213
309 310 309 312 316 318 318 311 312 314 311 314 316 320 321 321 324 320 316 315 314 308 335 318 282 255 256 281 272 234 220 226 231 237 236 230 220 211
306 308 310 315 319 320 320 320 324 326 321 323 327 330 330 328 321 319 321 330 338 328 328 317 288 291 286 280 285 280 245 234 235 239 234 227 220 212
308 312 318 321 324 322 320 326 331 333 329 328 330 330 327 325 322 322 327 334 349 6 13 12 358 332 317 303 295 291 286 267 256 250 233 216 200 191
319 316 319 324 328 324 323 328 328 324 324 324 327 326 330 340 345 341 340 346 347 352 1 16 26 23 1 333 334 332 325 314 314 314 300 142 148 157
318 317 327 330 332 333 334 333 332 337 338 336 341 349 351 353 355 352 358 3 9 3 359 348 335 7 40 23 4 5 6 7 6 12 44 75 84 105
342 336 334 333 335 337 341 340 335 338 338 343 356 5 2 5 9 10 13 20 22 20 15 2 358 359 344 46 25 16 22 24 27 33 42 62 70 69
352 339 337 337 337 341 344 343 340 339 345 356 6 3 5 12 18 22 24 28 34 37 32 26 22 20 37 39 21 19 24 29 42 49 47 51 56 56
346 340 339 339 338 343 346 347 345 348 353 357 1 1 5 14 22 26 28 33 41 45 44 37 31 25 28 27 23 23 29 34 41 54 56 61 65 67
339 339 339 339 341 344 346 347 347 349 353 352 352 353 358 16 27 32 37 35 42 47 50 43 32 27 24 37 55 45 43 47 52 47 40 60 63 61
337 337 338 339 341 344 345 347 349 352 352 351 345 344 347 7 37 51 53 52 51 54 57 52 42 42 44 56 59 56 58 59 59 58 54 54 62 67
333 333 335 338 340 342 344 347 349 350 348 344 343 343 351 11 32 61 78 75 66 64 63 62 58 58 57 58 64 64 62 61 62 64 60 58 69 75